Location: Gorrie
(43.8742°N, 81.1087°W)
Time: 16:43:40
(UTC+00:00)

CZ-4 R/B - Pass Details

Date: 09 December 2025
Orbit: 675 x 744 km, 98.7° (Epoch: 16 January)

Event Time Altitude Azimuth Distance (km) Brightness Sun altitude
Rises 10:52:33 0° 10° (N) 3,055 7.1 -19.9°
Reaches altitude 10° 10:54:49 10° 8° (N) 2,129 6.2 -19.5°
Maximum altitude 10:59:24 63° 288° (WNW) 754 3.6 -18.7°
Drops below altitude 10° 11:03:56 10° 207° (SSW) 2,103 6.2 -17.9°
Sets 11:06:10 0° 204° (SSW) 3,015 7.0 -17.5°
